Regional Weather Roundup
Issued by NWS

Home | Current Version | Previous Version | Text Only | Print | Product List | Glossary Off
Versions: 1 2 3 4 5 6 7 8 9 10 11 12 13 14 15 16 17 18 19 20 21 22 23 24 25 26 27

000
ASUS45 KCYS 190910
RWRWY

WYOMING REGIONAL WEATHER ROUNDUP
NATIONAL WEATHER SERVICE CHEYENNE WY
200 AM MST SUN FEB 19 2017

NOTE:  "FAIR" INDICATES FEW OR NO CLOUDS BELOW 12,000 FEET
WITH NO SIGNIFICANT WEATHER AND/OR OBSTRUCTIONS TO VISIBILITY.

WYZ001-191000-
YELLOWSTONE NATIONAL PARK

CITY           SKY/WX    TMP DP  RH WIND       PRES   REMARKS
LK YELLOWSTONE   N/A     30  30 100 CALM      29.59F
W YELLOWSTONE  NOT AVBL

$$
WYZ002>013-054>058-071-098>099-191000-
NORTHERN WYOMING

CITY           SKY/WX    TMP DP  RH WIND       PRES   REMARKS
JACKSON        CLOUDY    34  32  93 SW8       29.60S WCI  27
CODY           FAIR      39  28  64 VRB3      29.51F
GREYBULL       FAIR      42  32  67 SE3       29.52S
WORLAND        FAIR      37  32  82 SE12      29.52F WCI  29
SHERIDAN       FAIR      33  28  81 SE14      29.49F WCI  23
BUFFALO        FAIR      46  27  47 S20       29.50F
GILLETTE       FAIR      46  33  60 SW20G30   29.53F
HULETT         FAIR      50  32  50 SW12G21   29.56S
NEWCASTLE      FAIR      41  30  65 SE8       29.62R

$$
WYZ014>020-022>026-101>103-191000-
CENTRAL WYOMING

CITY           SKY/WX    TMP DP  RH WIND       PRES   REMARKS
BIG PINEY      CLOUDY    30  29  96 SE6       29.67F WCI  24
PINEDALE       CLOUDY    32  32 100 E7        29.67F WCI  26
DUBOIS         PTSUNNY   32  27  80 CALM      29.57F
LANDER         FAIR      33  27  78 SW8       29.56F WCI  26
RIVERTON       FAIR      29  27  92 W6        29.57S WCI  23
CASPER         FAIR      38  31  76 S18G28    29.63S WCI  28
DOUGLAS        FAIR      35  28  75 SE6       29.65R WCI  30

$$
WYZ021-027>030-104>119-191000-
SOUTHERN WYOMING

CITY           SKY/WX    TMP DP  RH WIND       PRES   REMARKS
EVANSTON       CLOUDY    34  27  75 SW6       29.64F WCI  29
KEMMERER         N/A     30  30 100 CALM      29.66F
FORT BRIDGER   PTSUNNY   31  31 100 S6        29.68F WCI  25
ROCK SPRINGS   CLOUDY    39  29  67 S17       29.66S WCI  30
DIXON            N/A     32  29  88 CALM      29.77R
RAWLINS        FAIR      35  28  75 S8        29.71S WCI  29
SARATOGA       FAIR      30  30 100 S8        29.73R WCI  23
LARAMIE        FAIR      27  23  85 S7        29.72S WCI  19
CHEYENNE       FAIR      37  24  59 W10       29.67F WCI  30
TORRINGTON     FAIR      38  25  59 NW6       29.63S WCI  33
PINE BLUFFS    FAIR      34  25  69 W9        29.66S WCI  26

$$




USA.gov is the U.S. government's official web portal to all federal, state and local government web resources and services.